Location: Betzi
(47.2343°N, 9.5260°E)
Time: 22:52:24
(UTC+00:00)

Helios 1A - Pass Details

Date: 27 May 2022
Orbit: 582 x 600 km, 98.2° (Epoch: 29 June)

Event Time Altitude Azimuth Distance (km) Brightness Sun altitude
Exits shadow 01:25:54 10° 153° (SSE) 1,906 5.3 -15.8°
Maximum altitude 01:29:59 64° 72° (ENE) 668 3.4 -15.4°
Drops below altitude 10° 01:34:10 10° 352° (N) 1,951 6.4 -15.0°
Sets 01:36:22 0° 349° (N) 2,860 7.2 -14.8°
